| time (UTC) | temp F | wind direction | speed MPH | gust MPH | rain 1hr in | rain 24hr in | rain mn in | humidity % | barometer mb |
| 20260502213558 | 64 | 296 | 3.0 | 3.0 | 0.00 | 0.00 | 0.00 | 44 | 1025.7 |
| 20260502212544 | 64 | 296 | 3.0 | 3.0 | 0.00 | 0.00 | 0.00 | 43 | 1025.7 |
| 20260502211530 | 64 | 296 | 3.0 | 3.0 | 0.00 | 0.00 | 0.00 | 40 | 1027.7 |
| 20260502210637 | 65 | 296 | 3.0 | 3.0 | 0.00 | 0.00 | 0.00 | 39 | 1027.7 |
| 20260502205623 | 60 | 204 | 4.0 | 4.0 | 0.00 | 0.00 | 0.00 | 46 | 1026.7 |
| 20260502204548 | 61 | 204 | 4.0 | 4.0 | 0.00 | 0.00 | 0.00 | 51 | 1026.7 |
| 20260502203535 | 62 | 204 | 4.0 | 4.0 | 0.00 | 0.00 | 0.00 | 59 | 1026.7 |
| 20260502202521 | 62 | 204 | 4.0 | 4.0 | 0.00 | 0.00 | 0.00 | 54 | 1028.7 |
| 20260502201608 | 62 | 204 | 4.0 | 4.0 | 0.00 | 0.00 | 0.00 | 54 | 1028.7 |
| 20260502200554 | 62 | 204 | 4.0 | 4.0 | 0.00 | 0.00 | 0.00 | 53 | 1027.7 |
| 20260502195540 | 63 | 204 | 4.0 | 4.0 | 0.00 | 0.00 | 0.00 | 52 | 1026.7 |
| 20260502194526 | 64 | 204 | 4.0 | 4.0 | 0.00 | 0.00 | 0.00 | 51 | 1026.7 |
| 20260502193614 | 66 | 202 | 5.0 | 5.0 | 0.00 | 0.00 | 0.00 | 47 | 1027.7 |
| 20260502192559 | 66 | 204 | 4.0 | 4.0 | 0.00 | 0.00 | 0.00 | 47 | 1028.7 |
| 20260502191545 | 66 | 202 | 5.0 | 5.0 | 0.00 | 0.00 | 0.00 | 47 | 1026.7 |
| 20260502190532 | 66 | 204 | 4.0 | 4.0 | 0.00 | 0.00 | 0.00 | 47 | 1026.7 |
| 20260502185518 | 67 | 202 | 5.0 | 5.0 | 0.00 | 0.00 | 0.00 | 47 | 1026.7 |
| 20260502184605 | 68 | 204 | 4.0 | 4.0 | 0.00 | 0.00 | 0.00 | 45 | 1026.7 |
| 20260502183551 | 68 | 202 | 5.0 | 5.0 | 0.00 | 0.00 | 0.00 | 44 | 1025.8 |
| 20260502182538 | 69 | 204 | 4.0 | 5.0 | 0.00 | 0.00 | 0.00 | 43 | 1024.8 |
| 20260502181524 | 70 | 202 | 5.0 | 5.0 | 0.00 | 0.00 | 0.00 | 43 | 1025.5 |
| 20260502180611 | 71 | 202 | 5.0 | 5.0 | 0.00 | 0.00 | 0.00 | 41 | 1025.7 |
| 20260502163610 | 75 | 201 | 6.0 | 6.0 | 0.00 | 0.00 | 0.00 | 37 | 1025.7 |
| 20260502162556 | 75 | 201 | 6.0 | 6.0 | 0.00 | 0.00 | 0.00 | 37 | 1025.7 |
| 20260502161542 | 76 | 201 | 6.0 | 6.0 | 0.00 | 0.00 | 0.00 | 36 | 1026.0 |
| 20260502160529 | 76 | 201 | 6.0 | 6.0 | 0.00 | 0.00 | 0.00 | 37 | 1026.7 |
| 20260502151541 | 77 | 201 | 6.0 | 6.0 | 0.00 | 0.00 | 0.00 | 35 | 1025.7 |
| 20260502150606 | 77 | 201 | 6.0 | 7.0 | 0.00 | 0.00 | 0.00 | 35 | 1026.7 |
| 20260502130542 | 78 | 201 | 6.0 | 6.0 | 0.00 | 0.00 | 0.00 | 35 | 1027.7 |
| 20260502123542 | 78 | 201 | 6.0 | 7.0 | 0.00 | 0.00 | 0.00 | 34 | 1027.7 |
| 20260502122549 | 78 | 201 | 6.0 | 6.0 | 0.00 | 0.00 | 0.00 | 34 | 1029.7 |
| 20260502121617 | 77 | 198 | 5.0 | 11.0 | 0.00 | 0.00 | 0.00 | 34 | 1029.7 |
| 20260502120604 | 77 | 196 | 5.0 | 7.0 | 0.00 | 0.00 | 0.00 | 34 | 1028.7 |
| 20260502115550 | 77 | 198 | 5.0 | 7.0 | 0.00 | 0.00 | 0.00 | 33 | 1028.7 |
| 20260502114536 | 77 | 196 | 5.0 | 5.0 | 0.00 | 0.00 | 0.00 | 31 | 1028.7 |
| 20260502113523 | 77 | 198 | 5.0 | 9.0 | 0.00 | 0.00 | 0.00 | 35 | 1029.7 |
| 20260502112611 | 77 | 198 | 5.0 | 8.0 | 0.00 | 0.00 | 0.00 | 34 | 1028.7 |
| 20260502111557 | 76 | 198 | 5.0 | 6.0 | 0.00 | 0.00 | 0.00 | 34 | 1028.7 |
| 20260502110603 | 76 | 198 | 5.0 | 6.0 | 0.00 | 0.00 | 0.00 | 35 | 1028.7 |
| 20260502105529 | 76 | 198 | 5.0 | 7.0 | 0.00 | 0.00 | 0.00 | 35 | 1029.5 |
| 20260502104636 | 76 | 198 | 5.0 | 5.0 | 0.00 | 0.00 | 0.00 | 34 | 1029.7 |
| 20260502103603 | 76 | 198 | 5.0 | 6.0 | 0.00 | 0.00 | 0.00 | 37 | 1030.3 |
| 20260502102549 | 75 | 198 | 5.0 | 7.0 | 0.00 | 0.00 | 0.00 | 35 | 1029.3 |
| 20260502100522 | 75 | 189 | 3.0 | 5.0 | 0.00 | 0.00 | 0.00 | 37 | 1029.7 |
| 20260502090601 | 73 | 166 | 1.0 | 2.0 | 0.00 | 0.00 | 0.00 | 41 | 1030.7 |
| 20260502071533 | 61 | 166 | 1.0 | 1.0 | 0.00 | 0.00 | 0.00 | 52 | 1030.7 |
| 20260502070540 | 60 | 166 | 1.0 | 2.0 | 0.00 | 0.00 | 0.00 | 56 | 1031.7 |
| 20260502065607 | 59 | 166 | 1.0 | 2.0 | 0.00 | 0.00 | 0.00 | 57 | 1031.7 |
| 20260502064553 | 58 | 166 | 1.0 | 2.0 | 0.00 | 0.00 | 0.00 | 61 | 1031.7 |
| 20260502063600 | 57 | 346 | 1.0 | 2.0 | 0.00 | 0.00 | 0.00 | 63 | 1030.7 |
| 20260502062527 | 57 | 346 | 1.0 | 2.0 | 0.00 | 0.00 | 0.00 | 64 | 1032.7 |
| 20260502061613 | 56 | 346 | 1.0 | 2.0 | 0.00 | 0.00 | 0.00 | 58 | 1032.7 |
| 20260502060620 | 55 | 346 | 1.0 | 1.0 | 0.00 | 0.00 | 0.00 | 57 | 1032.7 |
| 20260502055547 | 54 | 346 | 1.0 | 1.0 | 0.00 | 0.00 | 0.00 | 63 | 1031.7 |
| 20260502054533 | 52 | 346 | 1.0 | 1.0 | 0.00 | 0.00 | 0.00 | 62 | 1031.7 |
| 20260502053541 | 51 | 347 | 3.0 | 3.0 | 0.00 | 0.00 | 0.00 | 57 | 1030.7 |
| 20260502052607 | 49 | 347 | 3.0 | 3.0 | 0.00 | 0.00 | 0.00 | 57 | 1032.7 |
| 20260502051634 | 48 | 347 | 3.0 | 3.0 | 0.00 | 0.00 | 0.00 | 57 | 1032.7 |
| 20260502050541 | 46 | 358 | 3.0 | 3.0 | 0.00 | 0.00 | 0.00 | 57 | 1031.7 |
| 20260502045527 | 51 | 358 | 3.0 | 3.0 | 0.00 | 0.00 | 0.00 | 57 | 1031.7 |
| 20260502044636 | 51 | 360 | 3.0 | 3.0 | 0.00 | 0.00 | 0.00 | 57 | 1031.7 |
| 20260502043602 | 51 | 358 | 3.0 | 3.0 | 0.00 | 0.00 | 0.00 | 57 | 1030.7 |
| 20260502042549 | 51 | 360 | 3.0 | 3.0 | 0.00 | 0.00 | 0.00 | 57 | 1030.7 |
| 20260502041535 | 52 | 358 | 3.0 | 3.0 | 0.00 | 0.00 | 0.00 | 57 | 1031.7 |
| 20260502040542 | 51 | 360 | 3.0 | 3.0 | 0.00 | 0.00 | 0.00 | 57 | 1031.7 |
| 20260502035609 | 47 | 10 | 3.0 | 3.0 | 0.00 | 0.00 | 0.00 | 57 | 1031.7 |
| 20260502034556 | 50 | 360 | 3.0 | 3.0 | 0.00 | 0.00 | 0.00 | 57 | 1031.7 |
| 20260502033623 | 49 | 10 | 3.0 | 3.0 | 0.00 | 0.00 | 0.00 | 57 | 1031.7 |
| 20260502032549 | 46 | 12 | 3.0 | 3.0 | 0.00 | 0.00 | 0.00 | 56 | 1030.9 |
| 20260502031617 | 47 | 12 | 3.0 | 3.0 | 0.00 | 0.00 | 0.00 | 56 | 1030.7 |
| 20260502030624 | 50 | 12 | 3.0 | 3.0 | 0.00 | 0.00 | 0.00 | 55 | 1031.4 |
| 20260502025630 | 48 | 11 | 3.0 | 3.0 | 0.00 | 0.00 | 0.00 | 54 | 1031.7 |
| 20260502024536 | 51 | 12 | 3.0 | 3.0 | 0.00 | 0.00 | 0.00 | 55 | 1031.7 |
| 20260502023523 | 50 | 11 | 3.0 | 3.0 | 0.00 | 0.00 | 0.00 | 54 | 1031.7 |
| 20260502022611 | 47 | 10 | 3.0 | 3.0 | 0.00 | 0.00 | 0.00 | 54 | 1031.7 |
| 20260502021558 | 48 | 355 | 2.0 | 3.0 | 0.00 | 0.00 | 0.00 | 54 | 1031.7 |
| 20260502020605 | 49 | 314 | 1.0 | 1.0 | 0.00 | 0.00 | 0.00 | 54 | 1031.7 |
| 20260502015531 | 49 | 314 | 1.0 | 1.0 | 0.00 | 0.00 | 0.00 | 54 | 1031.7 |
| 20260502014518 | 49 | 314 | 1.0 | 1.0 | 0.00 | 0.00 | 0.00 | 55 | 1031.7 |
| 20260502013606 | 49 | 314 | 1.0 | 1.0 | 0.00 | 0.00 | 0.00 | 55 | 1032.1 |
| 20260502012552 | 49 | 314 | 1.0 | 1.0 | 0.00 | 0.00 | 0.00 | 55 | 1032.7 |
| 20260502011539 | 49 | 314 | 1.0 | 1.0 | 0.00 | 0.00 | 0.00 | 55 | 1032.7 |
| 20260502010526 | 49 | 318 | 1.0 | 1.0 | 0.00 | 0.00 | 0.00 | 54 | 1032.7 |
| 20260502005634 | 49 | 325 | 1.0 | 1.0 | 0.00 | 0.00 | 0.00 | 55 | 1032.5 |
| 20260502004559 | 50 | 325 | 1.0 | 1.0 | 0.00 | 0.00 | 0.00 | 55 | 1031.7 |
| 20260502003547 | 50 | 327 | 2.0 | 2.0 | 0.00 | 0.00 | 0.00 | 54 | 1031.7 |
| 20260502002533 | 49 | 327 | 2.0 | 2.0 | 0.00 | 0.00 | 0.00 | 53 | 1031.7 |
| 20260502001520 | 49 | 327 | 2.0 | 2.0 | 0.00 | 0.00 | 0.00 | 54 | 1030.7 |
| 20260502000626 | 50 | 315 | 1.0 | 1.0 | 0.00 | 0.00 | 0.00 | 47 | 1032.7 |
| 20260501235552 | 50 | 315 | 1.0 | 1.0 | 0.00 | 0.00 | 0.00 | 51 | 1032.7 |
| 20260501234539 | 50 | 305 | 2.0 | 2.0 | 0.00 | 0.00 | 0.00 | 49 | 1031.7 |
| 20260501233526 | 56 | 305 | 2.0 | 2.0 | 0.00 | 0.00 | 0.00 | 45 | 1030.7 |
| 20260501232614 | 56 | 305 | 2.0 | 2.0 | 0.00 | 0.00 | 0.00 | 45 | 1030.7 |
| 20260501231621 | 56 | 305 | 2.0 | 2.0 | 0.00 | 0.00 | 0.00 | 45 | 1032.7 |
| 20260501230547 | 56 | 305 | 2.0 | 2.0 | 0.00 | 0.00 | 0.00 | 46 | 1032.7 |
| 20260501225534 | 59 | 303 | 3.0 | 3.0 | 0.00 | 0.00 | 0.00 | 44 | 1031.7 |
| 20260501224521 | 59 | 303 | 3.0 | 3.0 | 0.00 | 0.00 | 0.00 | 43 | 1031.7 |
| 20260501223628 | 59 | 303 | 3.0 | 3.0 | 0.00 | 0.00 | 0.00 | 41 | 1030.7 |
| 20260501222555 | 59 | 303 | 3.0 | 3.0 | 0.00 | 0.00 | 0.00 | 42 | 1032.7 |
| 20260501221542 | 59 | 303 | 3.0 | 3.0 | 0.00 | 0.00 | 0.00 | 45 | 1032.7 |
| 20260501220529 | 59 | 303 | 3.0 | 3.0 | 0.00 | 0.00 | 0.00 | 45 | 1032.7 |
| 20260501215616 | 59 | 303 | 3.0 | 3.0 | 0.00 | 0.00 | 0.00 | 45 | 1031.7 |
| 20260501214603 | 54 | 303 | 3.0 | 3.0 | 0.00 | 0.00 | 0.00 | 45 | 1031.7 |